Regional Weather Roundup
Issued by NWS

Home | Current Version | Previous Version | Text Only | Print | Product List | Glossary Off
Versions: 1 2 3 4 5 6 7 8 9 10 11 12 13 14 15 16 17 18 19 20 21 22 23 24 25 26 27 28 29 30 31 32 33 34 35 36 37 38 39 40 41 42 43 44 45 46 47 48 49 50

000
ASUS43 KLMK 171210
RWRKY
KENTUCKY REGIONAL WEATHER ROUNDUP
NATIONAL WEATHER SERVICE LOUISVILLE KY
800 AM EDT THU APR 17 2014

NOTE "FAIR" INDICATES FEW OR NO CLOUDS BELOW 12,000 FEET
WITH NO SIGNIFICANT WEATHER AND/OR OBSTRUCTIONS TO VISIBILITY.

KYZ001>023-026-027-061>063-070>075-171300-
WESTERN AND SOUTH CENTRAL KENTUCKY

CITY           SKY/WX    TMP DP  RH WIND       PRES   REMARKS
PADUCAH        CLEAR     45  33  63 S5        30.25R
HENDERSON      CLEAR     43  30  61 S7        30.27R
OWENSBORO      CLEAR     44  35  70 S9        30.29R
HOPKINSVILLE   CLEAR     48  32  53 SE6       30.30R
BOWLING GREEN  CLEAR     46  31  55 S5        30.34R
GLASGOW        CLEAR     46  30  52 S7        30.34R
$$

KYZ024-025-028>034-038-045-046-053-171300-
NORTH CENTRAL KENTUCKY

CITY           SKY/WX    TMP DP  RH WIND       PRES   REMARKS
LOUISVILLE/SDF MOCLDY    44  32  62 SE7       30.32R
LOUISVILLE/LOU CLEAR     46  30  53 S3        30.33R
FORT KNOX      CLEAR     43  33  69 S8        30.31R
$$

KYZ035>037-039>044-047>052-055>060-089>105-171300-
NORTHEAST KENTUCKY

CITY           SKY/WX    TMP DP  RH WIND       PRES   REMARKS
LEXINGTON      MOSUNNY   44  29  55 S8        30.35R
COVINGTON      PTSUNNY   38  26  62 S7        30.32R WCI  33
FRANKFORT      SUNNY     40  30  67 SE6       30.33R
$$

KYZ054-064>069-076>088-106>120-171300-
SOUTHEAST KENTUCKY

CITY           SKY/WX    TMP DP  RH WIND       PRES   REMARKS
JACKSON        PTSUNNY   43  23  45 CALM      30.38R
LONDON         MOSUNNY   36  30  79 MISG      30.37R
SOMERSET       MOSUNNY   39  30  70 CALM      30.39R
MIDDLESBORO    MOSUNNY   35  31  84 CALM      30.41R
MONTICELLO     MOSUNNY   44  30  58 S9        30.37R
$$




USA.gov is the U.S. government's official web portal to all federal, state and local government web resources and services.